Hlavní strana
METAR-TAF:

METAR-TAF

Letiště :

Johannesburg, Jihoafrická republika

zeměpisná šířka: 26-09S, zeměpisná délka: 28-00E, výška: 1626 m

Aktuální stav počasí

Zpráva byla vytvořena před 25 minutami, v 10:00 UTC
Severozápadní vítr 3 kt
Teplota 26°C
Vlhkost vzduchu 26%
Tlak 1018 hPa

METAR: FAJB 171000Z AUTO 31003KT //// // ////// 26/05 Q1018

Čas: 12:25 (10:25 UTC)


TAF: chybějící

Stav a předpovědi počasí z více než 4 000 letišť (zprávy METAR a TAF).

Červené a žluté tečky na mapě představují dostupné meteorologické stanice.

Když kurzor umístíte na tečku, zobrazí se název stanice.

Pak kliknutím zobrazíte stav a předpověď počasí.

Chcete-li změnit mapu, kliknutím na zelené tlačítko se znaménkem +mapu přiblížíte, kliknutím na zelené tlačítko se znaménkem – mapu oddálíte a kliknutím na zelené šipky přejdete na sousední mapy.


METAR-TAF: